Regional Weather Roundup
Issued by NWS Glasgow, MT

Home | Current Version | Previous Version | Text Only | Print | Product List | Glossary On
Versions: 1 2 3 4 5 6 7 8 9 10 11 12 13 14 15 16 17 18 19 20 21 22 23 24 25 26 27 28 29 30 31 32 33 34 35 36 37 38 39 40 41 42 43 44 45 46 47 48 49 50
000
ASUS45 KGGW 291615
RWRGGW
HOURLY REGIONAL WEATHER ROUNDUP FOR NORTHEAST MONTANA
NATIONAL WEATHER SERVICE GLASGOW MONTANA
1000 AM MDT WED MAR 29 2017

NOTE: "FAIR" INDICATES FEW OR NO CLOUDS BELOW 12,000 FEET WITH NO
SIGNIFICANT WEATHER AND/OR OBSTRUCTIONS TO VISISBILITY.

NORTHEAST MONTANA


CITY           SKY/WX    TMP DP  RH WIND       PRES   REMARKS
GLASGOW        SUNNY     48  31  51 SW6       30.01S
PLENTYWOOD       N/A     44  43  96 SE5         N/A
WOLF POINT     SUNNY     50  35  56 SW12      30.02F
JORDAN           N/A     49  31  49 W12       30.03F
WINNETT          N/A     51  27  39 SW3G12      N/A
SIDNEY         CLOUDY    46  43  89 S9        30.03F
GLENDIVE       MOSUNNY   50  40  68 SW9       30.04F
MALTA            N/A     51  32  48 W6          N/A
SCOBEY           N/A     47  32  56 CALM      29.95

FORT PECK REPORTS


CITY           SKY/WX    TMP DP  RH WIND       PRES   REMARKS
FORT PECK        N/A     41  32  70 S7          N/A
THE PINES        N/A     47  29  49 CALM        N/A

SOUTHEAST MONTANA


CITY           SKY/WX    TMP DP  RH WIND       PRES   REMARKS
BILLINGS       MOSUNNY   45  34  65 SW10      30.08F
MILES CITY     SUNNY     46  36  68 SW8       30.06F
BAKER          SUNNY     50  37  61 SW13      30.06F
LIVINGSTON     SUNNY     49  29  46 SW21      30.07F

CENTRAL MONTANA


CITY           SKY/WX    TMP DP  RH WIND       PRES   REMARKS
HAVRE          CLOUDY    48  30  49 SW13      30.00F
LEWISTOWN      MOSUNNY   46  26  45 SW7       30.04S
GREAT FALLS    CLOUDY    45  28  51 SW18G24   30.02S
CUT BANK       CLOUDY    42  28  57 SW16      29.96F
HELENA         CLOUDY    45  29  53 E9        30.06F
BUTTE          CLOUDY    41  24  51 CALM      30.07F
BOZEMAN        MOSUNNY   45  26  47 CALM      30.08F

WESTERN MONTANA


CITY           SKY/WX    TMP DP  RH WIND       PRES   REMARKS
MISSOULA       LGT RAIN  43  34  70 SE10      30.05F
KALISPELL      NOT AVBL

NORTH DAKOTA


CITY           SKY/WX    TMP DP  RH WIND       PRES   REMARKS
WILLISTON      CLOUDY    45  41  86 SW9       30.02F
DICKINSON      CLOUDY    45  42  89 SW14      30.05S
MINOT          CLOUDY    50  43  77 S9        30.05S
BISMARCK       MOSUNNY   53  42  66 SW3       30.12S

SOUTHERN SASKATCHEWAN


CITY           SKY/WX    TMP DP  RH WIND       PRES   REMARKS
REGINA         PTSUNNY   45  34  65 SW8       29.91S
MOOSE JAW      MOSUNNY   46  30  53 W13       29.90S
ESTEVAN        CLOUDY    43  39  87 S8        29.98F
SWIFT CURRENT  SUNNY     46  27  46 W15G23    29.88R




USA.gov is the U.S. government's official web portal to all federal, state and local government web resources and services.